Location: Burkham Ranch
(38.4408°N, 119.1160°W)
Time: 06:29:00
(UTC+00:00)

Daily predictions for brighter satellites

Satellite Brightness Start Highest point End
(mag) Time Altitude Azimuth Time Altitude Azimuth Time Altitude Azimuth
CZ-2C R/B 4.0 12:01:27 10° NNW 12:04:45 25° WNW 12:04:49 25° WNW
PSLV R/B 3.5 12:00:24 10° N 12:04:45 68° WNW 12:07:37 21° SSW
Cosmos 2151 Rocket 3.5 12:01:13 10° NNW 12:05:34 64° W 12:09:55 10° S
Cosmos 1378 Rocket 3.6 12:02:25 10° S 12:06:45 82° E 12:11:08 10° N
Cosmos 494 Rocket 4.3 12:02:39 10° NNW 12:07:36 43° WSW 12:12:32 10° S
Meteor 1-31 Rocket 4.3 12:08:21 10° NNE 12:12:00 36° E 12:15:37 10° SSE
Cosmos 1818 3.5 12:08:25 10° NW 12:13:50 68° WSW 12:19:11 10° SSE
Cosmos 1603 4.4 12:08:40 10° NNW 12:14:14 58° ENE 12:19:46 10° SE
Meteor 1-12 Rocket 4.4 12:08:42 10° NNW 12:14:27 53° W 12:20:04 10° S
Meteor 1-23 Rocket 4.3 12:09:36 10° S 12:15:19 86° E 12:21:07 10° N
Cosmos 2195 Rocket 4.4 12:10:38 10° S 12:16:48 86° W 12:23:04 10° N
ATLAS 5 CENTAUR R/B 2.7 12:11:41 10° NNW 12:17:39 75° ENE 12:24:28 10° SE
Meteor 1-15 Rocket 4.4 12:13:36 10° N 12:19:13 77° E 12:24:54 10° SSE
Cosmos 1627 Rocket 4.4 12:14:23 10° S 12:20:32 89° W 12:26:41 10° N
Cosmos 2263 Rocket 2.2 12:15:33 11° SSW 12:21:05 84° WNW 12:26:49 10° NNE
Cosmos 1867 3.7 12:20:34 18° SW 12:24:29 57° NW 12:29:52 10° NNE
CZ-4B R/B 2.3 12:24:08 16° SSW 12:26:21 30° W 12:29:28 10° NW
Cosmos 1269 Rocket 4.5 12:26:10 10° NW 12:31:02 38° W 12:35:53 10° SSW
H-2A R/B 3.3 12:32:37 10° NNE 12:36:31 49° E 12:40:17 10° S
USA 267 4.4 12:31:44 10° NNE 12:37:14 30° NNW 12:42:46 10° W
Geosat 4.5 12:35:20 10° NNE 12:40:04 43° WNW 12:44:48 10° SW
Meteor 2-13 Rocket 4.5 12:34:03 10° S 12:40:05 89° ESE 12:46:11 10° N
Meteor 1-4 Rocket 4.2 12:39:15 15° WSW 12:40:46 18° WNW 12:43:27 10° NNW
Cosmos 1766 4.2 12:37:24 10° N 12:41:12 51° E 12:44:57 10° SSE
BREEZE-M DEB (TANK) 3.8 12:39:34 10° WNW 12:41:25 15° NNW 12:42:50 10° NNE
ATLAS 3B R/B 3.4 12:36:59 14° WSW 12:42:13 36° NW 12:48:18 10° NNE
ALOS 3.3 12:38:59 10° NNE 12:43:32 50° E 12:48:03 10° S
STARLINK-43 3.2 12:40:39 10° NW 12:44:20 78° SW 12:48:01 10° SE
Okean 2 3.7 12:41:00 10° S 12:45:05 71° E 12:49:11 10° NNE
Cosmos 2251 Rocket 3.8 12:39:51 10° NNW 12:45:12 76° ENE 12:50:29 10° SSE
Cosmos 1092 Rocket 4.5 12:42:56 10° SSW 12:48:50 41° WNW 12:54:45 10° N
Okean 1 Rocket 3.3 12:45:03 10° NNW 12:49:15 47° W 12:53:28 10° SSW
Cosmos 1975 Rocket 3.1 12:46:23 10° S 12:50:44 85° E 12:55:07 10° N
CZ-4B R/B 3.7 12:49:20 10° N 12:53:10 64° WNW 12:56:50 10° SSW
Shenzhou-11 Module 1.6 12:53:54 11° WSW 12:56:21 70° SSE 12:58:55 10° ENE
Cosmos 1842 3.6 12:55:27 10° S 12:59:18 70° E 13:03:12 10° NNE
Cosmos 2026 Rocket 4.3 12:53:30 10° SSW 12:59:18 45° WNW 13:05:06 10° N
PSLV R/B 4.2 12:55:59 10° S 13:00:03 50° W 13:04:09 10° NNW
Cosmos 1484 Rocket 2.6 12:56:33 10° N 13:00:20 72° WNW 13:04:03 10° SSW
Cosmos 1378 3.4 12:58:15 10° SSW 13:01:51 48° W 13:05:29 10° N
Cosmos 1733 3.7 12:58:01 10° N 13:01:51 67° E 13:05:40 10° SSE
COSMO-SKYMED 1 3.2 12:59:33 10° SSE 13:03:50 63° ENE 13:08:08 10° N
Lacrosse 5 3.5 13:00:31 10° S 13:05:03 34° ESE 13:09:35 10° ENE
METEOR-M 4.4 13:00:17 10° NNE 13:05:39 78° ESE 13:10:59 10° S
Aureole 3 Rocket 2.5 13:02:05 10° NNW 13:06:10 71° W 13:09:23 10° S
